Volver al catálogo

STARLINK-3457

ActivoComunicacionesVLEO
NORAD 51754·PAYLOAD·🇺🇸 United States

Lanzado Feb 21, 2022 desde Cape Canaveral Space Force Station

Loading…

Próximos Pases (próximas 24 horas)

TLE

ActualizadoSource: CelesTrak SupGP

Época: Sep 14, 2026, 20:42 UTC

1 51754C 22016AS  26257.86298611 -.00047428  00000+0 -14012-2 0  2579
2 51754  53.1577 165.7274 0001386  93.8455 321.9636 15.34416148    14

Sigue STARLINK-3457 en tiempo real con AllMySat

Download on the App Store